Weather in Setovnoye

Russia / Kurgan Oblast     55°04′48″N   67°04′13″E
temp.,
°C
wind,
m/s
gust,
m/s
humid.,
%
clouds,
%
prec.,
mm/h
press.,
hPa
HPBL,
m
10 may, mon
mon1023:00+17ene81440100 0.1 1016807
02:00+14ene71347100 0.0 1017624
05:00+12ene61250100 0.0 1019578
08:00+13ene71043100 0.0 1020814
11:00+16ene7933100 0.0 10211313
14:00+18ene7925100 0.0 10221799
17:00+18ene7826100 0.0 10221820
20:00+15ene593698 0.0 1024291
11 may, tue
tue1123:00+11ene374581 0.0 1025121
02:00+9ene335134 0.0 102624
05:00+8ne33548 0.0 102725
08:00+15ne34385 0.0 1028387
11:00+19nne34285 0.0 10281678
14:00+21n33243 0.0 10272011
17:00+22nnw44235 0.0 10272145
20:00+18nnw333424 0.0 102723
12 may, wed
wed1223:00+15nnw3339100 0.0 102828
02:00+13nw33426 0.0 102831
05:00+12wnw344622 0.0 102849
08:00+17wnw4734100 0.0 1028355
11:00+22wnw5625100 0.0 10271322
14:00+24nw6825100 0.0 10252492
17:00+22n7843100 0.0 10251066
20:00+19n594796 0.0 1025287
13 may, thu
thu1323:00+15nne3348100 0.0 102640
02:00+13n3354100 0.0 102636
05:00+13nw335868 0.0 102635
08:00+15nnw245693 0.0 1027192
11:00+22nw473898 0.0 10251739
14:00+25nnw683332 0.0 10242467
17:00+25n683243 0.0 10242512
20:00+21nne344623 0.0 102456
14 may, fri
fri1423:00+20ne2349100 0.0 102559
02:00+19nnw1151100 0.0 102512
05:00+16nne226486 0.0 102614
08:00+20ene115199 0.0 1026307
11:00+25wnw123622 0.0 10261273
14:00+28w45275 0.0 10232850
17:00+28w67245 0.0 10222979
20:00+24nw333799 0.0 102127